Watonga, OK

10:15 AM CDT on August 21, 2017 (GMT -0500)
Watonga

Weather History for KJWG - November, 2012

Change the Weather History Date:

Saturday, November 10, 2012

  Actual Average Record
Temperature  
Mean Temperature 70 °F -  
Max Temperature 77 °F 59 °F 81 °F (1989)
Min Temperature 62 °F 36 °F 18 °F (1960)
Cooling Degree Days 4    
Growing Degree Days 20 (Base 50)    
Moisture  
Dew Point 59 °F    
Average Humidity 70    
Maximum Humidity 87    
Minimum Humidity 57    
Precipitation  
Precipitation 0.00 in - - ()
Sea Level Pressure  
Sea Level Pressure 29.73 in    
Wind  
Wind Speed 19 mph (South)    
Max Wind Speed 29 mph    
Max Gust Speed 41 mph    
Visibility 10 miles    
Events      
Averages and records for this station are not official NWS values.
T = Trace of Precipitation, MM = Missing Value Source: NWS Daily Summary

Daily Weather History Graph

Daily Weather History Graph

Search for Another Location

Airport or City:

Trip Planner

Search our weather history database for the weather conditions in past years. The results will help you decide how hot, cold, wet, or windy it might be!

Date:

Astronomy

Nov. 10, 2012 Rise Set
Actual Time 7:05 AM CST 5:29 PM CST
Civil Twilight 6:38 AM CST 5:56 PM CST
Nautical Twilight 6:07 AM CST 6:27 PM CST
Astronomical Twilight 5:37 AM CST 6:57 PM CST
Moon 3:18 AM CST (11/10) 3:11 PM CST (11/10)
Length of Visible Light 11h 18m
Length of Day
10h 24m
Waning Crescent, 14% of the Moon is Illuminated
Nov 10
Waning Crescent
Nov 13
New
Nov 20
First Quarter
Nov 28
Full
Dec 6
Last Quarter

Hourly Weather History & Observations

Time (CST) Temp. Dew Point Humidity Pressure Visibility Wind Dir Wind Speed Gust Speed Precip Events Conditions
4:15 AM 65.8 °F 57.2 °F 74% 29.84 in 10.0 mi SSE 9.2 mph - N/A   Clear
4:35 AM 64.6 °F 57.2 °F 77% 29.84 in 10.0 mi South 10.4 mph 16.1 mph N/A   Clear
4:55 AM 64.9 °F 57.6 °F 77% 29.84 in 10.0 mi South 11.5 mph - N/A   Clear
5:15 AM 64.6 °F 57.6 °F 78% 29.85 in 10.0 mi South 11.5 mph 18.4 mph N/A   Clear
6:35 AM 62.8 °F 57.2 °F 82% 29.83 in 10.0 mi South 13.8 mph 18.4 mph N/A   Clear
6:55 AM 62.8 °F 57.4 °F 82% 29.84 in 10.0 mi South 16.1 mph 23.0 mph N/A   Clear
7:15 AM 62.6 °F 57.4 °F 83% 29.84 in 10.0 mi South 16.1 mph 20.7 mph N/A   Clear
7:35 AM 62.6 °F 57.6 °F 84% 29.84 in 10.0 mi South 16.1 mph 21.9 mph N/A   Clear
7:55 AM 63.0 °F 58.3 °F 85% 29.84 in 10.0 mi South 17.3 mph 24.2 mph N/A   Clear
8:15 AM 63.5 °F 59.2 °F 86% 29.84 in 10.0 mi South 17.3 mph 25.3 mph N/A   Clear
8:35 AM 63.9 °F 59.9 °F 87% 29.84 in 10.0 mi South 21.9 mph 27.6 mph N/A   Scattered Clouds
8:55 AM 64.6 °F 60.1 °F 85% 29.83 in 10.0 mi South 21.9 mph 32.2 mph N/A   Mostly Cloudy
9:15 AM 65.3 °F 60.4 °F 84% 29.83 in 10.0 mi South 20.7 mph 29.9 mph N/A   Mostly Cloudy
9:35 AM 65.8 °F 60.6 °F 83% 29.83 in 10.0 mi South 20.7 mph 29.9 mph N/A   Overcast
9:55 AM 65.8 °F 60.8 °F 84% 29.82 in 10.0 mi South 23.0 mph 32.2 mph N/A   Overcast
10:15 AM 66.2 °F 60.8 °F 83% 29.81 in 10.0 mi South 17.3 mph 26.5 mph N/A   Overcast
10:35 AM 66.9 °F 61.0 °F 81% 29.80 in 10.0 mi South 25.3 mph 34.5 mph N/A   Overcast
10:55 AM 67.3 °F 61.0 °F 80% 29.80 in 10.0 mi South 20.7 mph 33.4 mph N/A   Overcast
11:15 AM 68.5 °F 61.0 °F 77% 29.79 in 10.0 mi South 21.9 mph 35.7 mph N/A   Overcast
11:35 AM 68.9 °F 61.0 °F 76% 29.78 in 10.0 mi South 23.0 mph 34.5 mph N/A   Overcast
11:55 AM 68.9 °F 60.8 °F 75% 29.77 in 10.0 mi South 21.9 mph 32.2 mph N/A   Overcast
12:15 PM 71.1 °F 61.0 °F 70% 29.77 in 10.0 mi South 26.5 mph 35.7 mph N/A   Overcast
12:35 PM 72.5 °F 61.0 °F 67% 29.75 in 10.0 mi South 27.6 mph 33.4 mph N/A   Mostly Cloudy
12:55 PM 73.4 °F 61.0 °F 65% 29.73 in 10.0 mi South 28.8 mph 40.3 mph N/A   Scattered Clouds
1:15 PM 73.8 °F 61.0 °F 64% 29.72 in 10.0 mi South 27.6 mph 39.1 mph N/A   Scattered Clouds
1:35 PM 74.1 °F 61.0 °F 63% 29.70 in 10.0 mi South 23.0 mph 35.7 mph N/A   Scattered Clouds
1:55 PM 75.6 °F 61.2 °F 61% 29.69 in 10.0 mi South 28.8 mph 36.8 mph N/A   Clear
2:15 PM 75.4 °F 61.0 °F 61% 29.69 in 10.0 mi South 26.5 mph 34.5 mph N/A   Clear
2:35 PM 77.0 °F 61.0 °F 58% 29.67 in 10.0 mi South 27.6 mph 34.5 mph N/A   Clear
2:55 PM 76.6 °F 61.0 °F 58% 29.66 in 10.0 mi South 26.5 mph 33.4 mph N/A   Clear
3:15 PM 76.5 °F 60.8 °F 58% 29.66 in 10.0 mi South 25.3 mph 34.5 mph N/A   Scattered Clouds
3:35 PM 76.6 °F 60.8 °F 58% 29.66 in 10.0 mi South 23.0 mph 34.5 mph N/A   Clear
3:55 PM 77.0 °F 60.8 °F 57% 29.67 in 10.0 mi South 25.3 mph 36.8 mph N/A   Clear
4:15 PM 76.5 °F 60.3 °F 57% 29.65 in 10.0 mi South 27.6 mph 41.4 mph N/A   Clear
4:35 PM 76.1 °F 59.9 °F 57% 29.66 in 10.0 mi South 28.8 mph 36.8 mph N/A   Clear
4:55 PM 75.2 °F 59.9 °F 59% 29.66 in 10.0 mi South 24.2 mph 38.0 mph N/A   Clear
5:15 PM 73.8 °F 59.9 °F 62% 29.66 in 10.0 mi South 19.6 mph 35.7 mph N/A   Clear
5:35 PM 73.2 °F 59.9 °F 63% 29.66 in 10.0 mi South 24.2 mph 35.7 mph N/A   Clear
5:55 PM 72.7 °F 59.4 °F 63% 29.66 in 10.0 mi South 19.6 mph 32.2 mph N/A   Clear
6:15 PM 72.7 °F 59.0 °F 62% 29.67 in 10.0 mi SSE 19.6 mph 29.9 mph N/A   Clear
6:35 PM 72.5 °F 58.6 °F 62% 29.68 in 10.0 mi South 21.9 mph 32.2 mph N/A   Clear
6:55 PM 71.8 °F 58.6 °F 63% 29.68 in 10.0 mi South 21.9 mph 34.5 mph N/A   Clear
7:15 PM 71.8 °F 58.5 °F 63% 29.67 in 10.0 mi South 21.9 mph 32.2 mph N/A   Clear
7:35 PM 71.6 °F 58.6 °F 64% 29.65 in 10.0 mi South 20.7 mph 31.1 mph N/A   Clear
7:55 PM 71.6 °F 58.6 °F 64% 29.65 in 10.0 mi SSE 21.9 mph 34.5 mph N/A   Clear
8:15 PM 71.6 °F 58.5 °F 63% 29.66 in 10.0 mi South 24.2 mph 32.2 mph N/A   Clear
8:35 PM 71.6 °F 58.5 °F 63% 29.67 in 10.0 mi South 21.9 mph 34.5 mph N/A   Clear
8:55 PM 71.6 °F 58.5 °F 63% 29.68 in 10.0 mi South 23.0 mph 33.4 mph N/A   Clear
9:15 PM 71.4 °F 58.1 °F 63% 29.68 in 10.0 mi South 26.5 mph 36.8 mph N/A   Clear
9:35 PM 71.2 °F 57.9 °F 63% 29.67 in 10.0 mi South 21.9 mph 36.8 mph N/A   Clear
9:55 PM 70.7 °F 57.9 °F 64% 29.67 in 10.0 mi South 23.0 mph 33.4 mph N/A   Clear
10:35 PM 70.2 °F 58.1 °F 65% 29.66 in 10.0 mi South 20.7 mph 28.8 mph N/A   Clear
11:15 PM 69.8 °F 58.3 °F 67% 29.69 in 10.0 mi SSW 19.6 mph 35.7 mph N/A   Clear
11:35 PM 69.1 °F 58.5 °F 69% 29.71 in 10.0 mi SSW 18.4 mph 25.3 mph N/A   Clear
11:55 PM 68.9 °F 58.5 °F 69% 29.70 in 10.0 mi SSW 18.4 mph 26.5 mph N/A   Clear